Location: Unspecified
(40.7945°N, 0.0000°E)
Time: 08:24:43
(UTC+00:00)

deb Explorer IX - Pass Details

Date: 24 January 2021
Orbit: 537 x 1103 km, 38.8° (Epoch: 23 February)

Event Time Altitude Azimuth Distance (km) Brightness Sun altitude
Rises 19:51:16 0° 267° (W) 3,557 ? -30.8°
Reaches altitude 10° 19:54:03 10° 266° (W) 2,522 ? -31.4°
Enters shadow 19:58:31 49° 251° (WSW) 1,019 ? -32.2°
